Hourly Data Report for February 21, 2004

TORONTO CITY
ONTARIO

43°40'00.000" N
79°24'00.000" W
112.50 m
6158355
71508
XTO

Download Data

Hourly Data (February 2004)
Hourly Data Report for February 21, 2004
TIME
LST
Temp Definition
°C
Dew Point Definition
°C
Rel Hum Definition
%
Precip. Amount Definition
mm

Wind Dir Definition
10's deg

Wind Spd Definition
km/h
Visibility Definition
km
Stn Press Definition
kPa
Hmdx Definition


Wind Chill Definition


Weather Definition


00:00 2.2 1.7 96   LegendMM LegendMM LegendMM 97.84     LegendNANA
01:00 2.6 2.2 97   LegendMM LegendMM LegendMM 97.79     LegendNANA
02:00 3.2 2.9 98   LegendMM LegendMM LegendMM 97.77     LegendNANA
03:00 2.6 2.2 97   LegendMM LegendMM LegendMM 97.82     LegendNANA
04:00 2.1 1.4 95   LegendMM LegendMM LegendMM 97.86     LegendNANA
05:00 2.3 1.4 94   LegendMM LegendMM LegendMM 97.91     LegendNANA
06:00 2.5 0.7 88   LegendMM LegendMM LegendMM 97.97     LegendNANA
07:00 2.3 0.4 87   LegendMM LegendMM LegendMM 97.95     LegendNANA
08:00 2.3 0.0 85   LegendMM LegendMM LegendMM 97.99     LegendNANA
09:00 2.4 -0.3 82   LegendMM LegendMM LegendMM 98.02     LegendNANA
10:00 2.3 -0.2 84   LegendMM LegendMM LegendMM 98.01     LegendNANA
11:00 1.7 -0.8 83   LegendMM LegendMM LegendMM 98.11     LegendNANA
12:00 1.4 -0.9 85   LegendMM LegendMM LegendMM 98.21     LegendNANA
13:00 1.6 -2.2 76   LegendMM LegendMM LegendMM 98.32     LegendNANA
14:00 1.1 -1.6 82   LegendMM LegendMM LegendMM 98.44     LegendNANA
15:00 0.4 -1.5 87   LegendMM LegendMM LegendMM 98.60     LegendNANA
16:00 -0.2 -1.5 91   LegendMM LegendMM LegendMM 98.77     LegendNANA
17:00 -0.1 -2.0 87   LegendMM LegendMM LegendMM 98.92     LegendNANA
18:00 -0.3 -2.5 85   LegendMM LegendMM LegendMM 99.10     LegendNANA
19:00 -0.5 -2.0 90   LegendMM LegendMM LegendMM 99.26     LegendNANA
20:00 -0.1 -3.5 78   LegendMM LegendMM LegendMM 99.39     LegendNANA
21:00 0.2 -3.7 75   LegendMM LegendMM LegendMM 99.54     LegendNANA
22:00 0.3 -4.0 73   LegendMM LegendMM LegendMM 99.65     LegendNANA
23:00 0.2 -4.1 73   LegendMM LegendMM LegendMM 99.74     LegendNANA

Notes on Data Quality.

Legend

  • E = Estimated
  • M = Missing
  • NA = Not Available*
  • [empty] = Indicates an unobserved value
Date modified: